Tracking 28518 objects as of 2-Mar-2024
HD Live streaming from Space Station
objects crossing your sky now

STARLINK-30962

Track STARLINK-30962 now!
10-day predictions
STARLINK-30962 is classified as:


NORAD ID: 58458
Int'l Code: 2023-183X
Perigee: 565.5 km
Apogee: 566.9 km
Inclination: 43.0 °
Period: 95.8 minutes
Semi major axis: 6937 km
RCS: Unknown
Launch date: November 28, 2023
Source: United States (US)
Launch site: AIR FORCE EASTERN TEST RANGE (AFETR)
Your satellite tracking list
Your tracking list is empty




NASA's NSSDC Master Catalog

Two Line Element Set (TLE):
1 58458U 23183X   24061.27432304  .00001140  00000-0  99412-4 0  9990
2 58458  43.0009  95.1318 0000988 276.6086  83.4644 15.02535064 15641
Source of the keplerian elements: AFSPC